| time (UTC) | temp F | wind direction | speed MPH | gust MPH | rain 1hr in | rain 24hr in | rain mn in | humidity % | barometer mb |
| 20260901171519 | 86 | 223 | 0.0 | 7.0 | 0.00 | 0.00 | 0.00 | 73 | 1012.3 |
| 20260901170029 | 86 | 232 | 2.0 | 7.0 | 0.00 | 0.00 | 0.00 | 76 | 1012.6 |
| 20260901164516 | 85 | 230 | 1.0 | 3.0 | 0.00 | 0.00 | 0.00 | 76 | 1012.7 |
| 20260901163011 | 84 | 230 | 1.0 | 5.0 | 0.00 | 0.00 | 0.00 | 79 | 1012.7 |
| 20260901161509 | 84 | 242 | 0.0 | 8.0 | 0.00 | 0.00 | 0.00 | 81 | 1012.8 |
| 20260901160011 | 83 | 221 | 2.0 | 8.0 | 0.00 | 0.00 | 0.00 | 80 | 1013.0 |
| 20260901154504 | 82 | 248 | 3.0 | 7.0 | 0.00 | 0.03 | 0.00 | 81 | 1012.9 |
| 20260901153001 | 81 | 251 | 0.0 | 5.0 | 0.00 | 0.03 | 0.00 | 83 | 1013.2 |
| 20260901151601 | 80 | 251 | 1.0 | 4.0 | 0.00 | 0.03 | 0.00 | 84 | 1013.3 |
| 20260901150056 | 80 | 251 | 2.0 | 4.0 | 0.00 | 0.03 | 0.00 | 84 | 1013.4 |
| 20260901144553 | 79 | 242 | 0.0 | 4.0 | 0.00 | 0.09 | 0.00 | 86 | 1013.4 |
| 20260901143054 | 79 | 242 | 0.0 | 4.0 | 0.00 | 0.09 | 0.00 | 87 | 1013.3 |
| 20260901141547 | 78 | 235 | 1.0 | 4.0 | 0.00 | 0.09 | 0.00 | 88 | 1013.1 |
| 20260901140044 | 77 | 237 | 2.0 | 6.0 | 0.00 | 0.09 | 0.00 | 89 | 1013.1 |
| 20260901134541 | 76 | 238 | 2.0 | 7.0 | 0.00 | 0.09 | 0.00 | 91 | 1013.1 |
| 20260901133045 | 75 | 237 | 3.0 | 7.0 | 0.00 | 0.09 | 0.00 | 92 | 1012.9 |
| 20260901131540 | 74 | 237 | 3.0 | 7.0 | 0.00 | 0.09 | 0.00 | 93 | 1013.2 |
| 20260901130032 | 73 | 244 | 3.0 | 8.0 | 0.00 | 0.09 | 0.00 | 94 | 1013.1 |
| 20260901124527 | 72 | 230 | 2.0 | 4.0 | 0.00 | 0.09 | 0.00 | 94 | 1013.1 |
| 20260901123032 | 72 | 230 | 1.0 | 2.0 | 0.00 | 0.09 | 0.00 | 94 | 1013.0 |
| 20260901121524 | 71 | 230 | 1.0 | 2.0 | 0.00 | 0.09 | 0.00 | 94 | 1012.9 |
| 20260901120022 | 70 | 230 | 0.0 | 1.0 | 0.00 | 0.09 | 0.00 | 94 | 1012.8 |
| 20260901114522 | 70 | 230 | 1.0 | 3.0 | 0.00 | 0.09 | 0.00 | 94 | 1012.8 |
| 20260901113019 | 69 | 230 | 1.0 | 3.0 | 0.00 | 0.09 | 0.00 | 93 | 1012.5 |
| 20260901111517 | 69 | 230 | 0.0 | 2.0 | 0.00 | 0.09 | 0.00 | 93 | 1012.3 |
| 20260901110017 | 70 | 230 | 1.0 | 3.0 | 0.00 | 0.09 | 0.00 | 93 | 1012.3 |
| 20260901104515 | 70 | 230 | 2.0 | 3.0 | 0.00 | 0.09 | 0.00 | 93 | 1012.1 |
| 20260901103014 | 70 | 230 | 1.0 | 4.0 | 0.00 | 0.09 | 0.00 | 93 | 1012.1 |
| 20260901101515 | 71 | 234 | 3.0 | 5.0 | 0.00 | 0.09 | 0.00 | 93 | 1012.1 |
| 20260901100014 | 71 | 237 | 3.0 | 7.0 | 0.00 | 0.09 | 0.00 | 93 | 1012.1 |
| 20260901094512 | 70 | 245 | 3.0 | 8.0 | 0.00 | 0.09 | 0.00 | 93 | 1012.3 |
| 20260901093009 | 70 | 217 | 2.0 | 6.0 | 0.00 | 0.09 | 0.00 | 93 | 1012.1 |
| 20260901091510 | 69 | 213 | 1.0 | 3.0 | 0.00 | 0.09 | 0.00 | 93 | 1012.0 |
| 20260901090016 | 70 | 213 | 2.0 | 4.0 | 0.00 | 0.09 | 0.00 | 93 | 1012.0 |
| 20260901084507 | 70 | 213 | 2.0 | 4.0 | 0.00 | 0.09 | 0.00 | 92 | 1012.2 |
| 20260901083006 | 70 | 213 | 2.0 | 3.0 | 0.00 | 0.09 | 0.00 | 92 | 1012.0 |
| 20260901081505 | 70 | 213 | 0.0 | 3.0 | 0.00 | 0.09 | 0.00 | 92 | 1011.9 |
| 20260901080006 | 70 | 213 | 0.0 | 3.0 | 0.00 | 0.09 | 0.00 | 92 | 1011.8 |
| 20260901074504 | 70 | 213 | 1.0 | 3.0 | 0.00 | 0.09 | 0.00 | 92 | 1011.8 |
| 20260901073003 | 70 | 213 | 0.0 | 4.0 | 0.00 | 0.09 | 0.00 | 92 | 1011.9 |
| 20260901071503 | 70 | 213 | 2.0 | 4.0 | 0.00 | 0.09 | 0.00 | 91 | 1011.7 |
| 20260901070001 | 71 | 210 | 1.0 | 5.0 | 0.00 | 0.09 | 0.00 | 91 | 1011.7 |
| 20260901064600 | 71 | 227 | 2.0 | 7.0 | 0.00 | 0.09 | 0.00 | 91 | 1011.8 |
| 20260901063103 | 71 | 216 | 4.0 | 9.0 | 0.00 | 0.09 | 0.00 | 91 | 1011.9 |
| 20260901061558 | 71 | 221 | 3.0 | 6.0 | 0.00 | 0.09 | 0.00 | 91 | 1011.8 |
| 20260901060057 | 71 | 211 | 2.0 | 4.0 | 0.00 | 0.09 | 0.00 | 90 | 1011.9 |
| 20260901054556 | 71 | 228 | 2.0 | 7.0 | 0.00 | 0.09 | 0.00 | 89 | 1011.8 |
| 20260901053104 | 72 | 231 | 2.0 | 8.0 | 0.00 | 0.09 | 0.00 | 89 | 1012.0 |
| 20260901051559 | 72 | 195 | 4.0 | 9.0 | 0.00 | 0.09 | 0.00 | 88 | 1011.9 |
| 20260901050157 | 72 | 243 | 5.0 | 9.0 | 0.00 | 0.09 | 0.00 | 88 | 1011.9 |
| 20260901044554 | 72 | 217 | 5.0 | 8.0 | 0.00 | 0.09 | 0.00 | 88 | 1011.9 |
| 20260901043047 | 72 | 223 | 5.0 | 10.0 | 0.00 | 0.09 | 0.00 | 89 | 1012.1 |
| 20260901041606 | 71 | 238 | 3.0 | 8.0 | 0.00 | 0.09 | 0.00 | 89 | 1012.0 |
| 20260901040055 | 71 | 228 | 2.0 | 4.0 | 0.00 | 0.09 | 0.00 | 88 | 1012.2 |
| 20260901034538 | 71 | 228 | 1.0 | 3.0 | 0.00 | 0.09 | 0.09 | 88 | 1012.1 |
| 20260901033041 | 70 | 228 | 0.0 | 3.0 | 0.00 | 0.09 | 0.09 | 89 | 1012.2 |
| 20260901031539 | 70 | 227 | 0.0 | 4.0 | 0.00 | 0.09 | 0.09 | 90 | 1012.1 |
| 20260901030038 | 70 | 228 | 0.0 | 1.0 | 0.00 | 0.09 | 0.09 | 90 | 1012.2 |
| 20260901024539 | 69 | 228 | 0.0 | 0.0 | 0.00 | 0.09 | 0.09 | 90 | 1012.2 |
| 20260901023037 | 69 | 228 | 0.0 | 1.0 | 0.00 | 0.09 | 0.09 | 89 | 1012.1 |
| 20260901021539 | 69 | 228 | 0.0 | 2.0 | 0.00 | 0.09 | 0.09 | 89 | 1012.4 |
| 20260901020036 | 70 | 227 | 1.0 | 2.0 | 0.00 | 0.09 | 0.09 | 88 | 1012.3 |
| 20260901014535 | 70 | 228 | 0.0 | 0.0 | 0.00 | 0.09 | 0.09 | 87 | 1012.4 |
| 20260901013035 | 70 | 228 | 0.0 | 1.0 | 0.00 | 0.09 | 0.09 | 86 | 1012.3 |
| 20260901011538 | 71 | 228 | 0.0 | 0.0 | 0.00 | 0.09 | 0.09 | 85 | 1012.2 |
| 20260901010050 | 71 | 228 | 0.0 | 2.0 | 0.00 | 0.09 | 0.09 | 85 | 1011.9 |
| 20260901004535 | 72 | 228 | 0.0 | 1.0 | 0.00 | 0.09 | 0.09 | 84 | 1011.7 |
| 20260901003036 | 73 | 228 | 0.0 | 1.0 | 0.00 | 0.09 | 0.09 | 83 | 1011.6 |
| 20260901001531 | 73 | 228 | 0.0 | 3.0 | 0.00 | 0.09 | 0.09 | 82 | 1011.5 |
| 20260901000032 | 74 | 228 | 0.0 | 3.0 | 0.00 | 0.09 | 0.09 | 80 | 1011.4 |
| 20260831234531 | 76 | 227 | 2.0 | 5.0 | 0.00 | 0.09 | 0.09 | 77 | 1011.4 |
| 20260831233040 | 77 | 213 | 1.0 | 7.0 | 0.00 | 0.09 | 0.09 | 74 | 1011.3 |
| 20260831231536 | 78 | 209 | 1.0 | 6.0 | 0.00 | 0.09 | 0.09 | 73 | 1011.1 |
| 20260831230031 | 79 | 212 | 2.0 | 9.0 | 0.00 | 0.09 | 0.09 | 72 | 1011.0 |
| 20260831224528 | 80 | 178 | 3.0 | 11.0 | 0.00 | 0.09 | 0.09 | 71 | 1011.2 |
| 20260831223027 | 80 | 178 | 2.0 | 10.0 | 0.00 | 0.09 | 0.09 | 73 | 1011.3 |
| 20260831221533 | 80 | 193 | 4.0 | 9.0 | 0.00 | 0.09 | 0.09 | 72 | 1011.4 |
| 20260831220025 | 80 | 207 | 4.0 | 11.0 | 0.00 | 0.09 | 0.09 | 74 | 1011.6 |
| 20260831214520 | 80 | 227 | 2.0 | 9.0 | 0.00 | 0.09 | 0.09 | 79 | 1011.9 |
| 20260831211517 | 79 | 209 | 3.0 | 9.0 | 0.00 | 0.09 | 0.09 | 79 | 1012.2 |
| 20260831210013 | 78 | 209 | 3.0 | 14.0 | 0.00 | 0.09 | 0.09 | 81 | 1012.2 |
| 20260831204512 | 78 | 190 | 1.0 | 10.0 | 0.00 | 0.09 | 0.09 | 79 | 1012.1 |
| 20260831203010 | 79 | 225 | 2.0 | 8.0 | 0.00 | 0.09 | 0.09 | 77 | 1012.3 |
| 20260831201515 | 79 | 267 | 2.0 | 10.0 | 0.00 | 0.09 | 0.09 | 77 | 1012.3 |
| 20260831200010 | 79 | 183 | 2.0 | 10.0 | 0.00 | 0.09 | 0.09 | 76 | 1012.3 |
| 20260831194507 | 79 | 155 | 3.0 | 12.0 | 0.00 | 0.09 | 0.09 | 78 | 1012.3 |
| 20260831193006 | 78 | 153 | 3.0 | 7.0 | 0.00 | 0.09 | 0.09 | 80 | 1012.5 |
| 20260831191600 | 77 | 146 | 3.0 | 8.0 | 0.00 | 0.09 | 0.09 | 83 | 1012.6 |
| 20260831190105 | 75 | 186 | 3.0 | 9.0 | 0.00 | 0.09 | 0.09 | 89 | 1012.8 |
| 20260831184550 | 72 | 171 | 3.0 | 7.0 | 0.00 | 0.09 | 0.09 | 92 | 1013.2 |
| 20260831183100 | 72 | 179 | 2.0 | 11.0 | 0.00 | 0.09 | 0.09 | 92 | 1013.0 |
| 20260831181549 | 71 | 146 | 4.0 | 9.0 | 0.00 | 0.09 | 0.09 | 93 | 1014.5 |
| 20260831180055 | 71 | 105 | 1.0 | 9.0 | 0.00 | 0.09 | 0.09 | 93 | 1015.3 |
| 20260831174545 | 71 | 99 | 1.0 | 4.0 | 0.00 | 0.09 | 0.09 | 93 | 1015.2 |
| 20260831173043 | 71 | 78 | 1.0 | 3.0 | 0.00 | 0.09 | 0.09 | 93 | 1015.0 |